AirNav   Air Wisconsin pilot careers
 
 1699 users online  

08M Carthage-Leake County Airport
Carthage, Mississippi, USA


FAA INFORMATION EFFECTIVE 01 FEBRUARY 2018

Location

FAA Identifier: 08M
Lat/Long: 32-45-41.7000N / 089-31-49.4000W
32-45.695000N / 089-31.823333W
32.7615833 / -89.5303889
(estimated)
Elevation: 457 ft. / 139 m (estimated)
Variation: 02E (1985)
From city: 2 miles N of CARTHAGE, MS
Time zone: UTC -6 (UTC -5 during Daylight Saving Time)
Zip code: 39051

Airport Operations

Airport use: Open to the public
Activation date: 02/1964
Control tower: no
ARTCC: MEMPHIS CENTER
FSS: GREENWOOD FLIGHT SERVICE STATION
NOTAMs facility: GWO (NOTAM-D service available)
Attendance: UNATNDD
Wind indicator: lighted
Segmented circle: yes
Lights: DUSK-2200. AFTER 2200 ACTVT MIRL RY 17/35 - CTAF.
Beacon: white-green (lighted land airport)
Operates sunset to sunrise.

Airport Communications

CTAF: 122.9

Nearby radio navigation aids

VOR radial/distance  VOR name  Freq  Var
MHZr057/34.8MAGNOLIA VORTAC113.2001W

Airport Services

Fuel available: 100LL
FUEL AVAIL 24/7 WITH CC.
Parking: tiedowns
Airframe service: NONE
Powerplant service: NONE
Bottled oxygen: NONE
Bulk oxygen: NONE

Runway Information

Runway 17/35

Dimensions: 3000 x 75 ft. / 914 x 23 m
Surface: asphalt, in excellent condition
Weight bearing capacity: 
Single wheel: 20.0
Runway edge lights: medium intensity
RUNWAY 17  RUNWAY 35
Latitude: 32-45.941613N32-45.448365N
Longitude: 089-31.845990W089-31.799015W
Elevation: 457.0 ft.445.0 ft.
Gradient: 0.1%0.1%
Traffic pattern: leftleft
Runway heading: 173 magnetic, 175 true353 magnetic, 355 true
Markings: nonprecision, in fair conditionnonprecision, in fair condition
Obstructions: 24 ft. trees, 930 ft. from runway, 200 ft. left of centerline, 30:1 slope to clear39 ft. tree, 1125 ft. from runway, 300 ft. right of centerline, 23:1 slope to clear

Airport Ownership and Management from official FAA records

Ownership: Publicly-owned
Owner: CITY OF CARTHAGE
212 MAIN ST
CARTHAGE, MS 39051
Phone 601-267-8322
JIMMY WALLACE, MAYOR.
Manager: TONY GORDON
212 MAIN ST
CARTHAGE, MS 39051
Phone 601-267-9327
CHAIRMAN OF AIRPORT ADVISORY COMMITTEE.

Airport Operational Statistics

Aircraft based on the field: 10
Single engine airplanes: 10
    
Aircraft operations: avg 88/week *
61% local general aviation
39% transient general aviation
* for 12-month period ending 13 February 2017

Instrument Procedures

There are no published instrument procedures at 08M.

Some nearby airports with instrument procedures:

KOSX - Kosciusko-Attala County Airport (20 nm N)
KMPE - Philadelphia Municipal Airport (21 nm E)
KLMS - Louisville Winston County Airport (33 nm NE)
19M - C A Moore Airport (33 nm NW)
KMBO - Bruce Campbell Field Airport (35 nm SW)
 
Loc | Ops | Rwys | IFR | FBO | Links
Com | Nav | Svcs | Stats | Notes

AirNav Hotels Sweepstakes
 
Area around 08M (Carthage-Leake County Airport)
 
Road maps at: MapQuest Bing Google
 
Aerial photo
WARNING: Photo may not be current or correct
Aerial photo of 08M (Carthage-Leake County Airport)
Do you have a better or more recent aerial photo of Carthage-Leake County Airport that you would like to share? If so, please send us your photo.

 
Sectional chart

 
Airport distance calculator
Flying to Carthage-Leake County Airport? Find the distance to fly.

From to 08M

Sunrise and sunset
Times for 20-Feb-2018
 Local
(UTC-6)
 Zulu
(UTC)
Morning civil twilight06:1212:12
Sunrise06:3712:37
Sunset17:4723:47
Evening civil twilight18:1200:12

Current date and time
Zulu (UTC)  20-Feb-2018 20:27:44
Local (UTC-6)  20-Feb-2018 14:27:44
 
METAR
KMBO 
35nm SW 
202015Z AUTO 18009KT 162V222 10SM CLR 27/17 A3009 RMK AO2
KJAN 
39nm SW 
201954Z 18013G26KT 10SM FEW041 SCT055 BKN075 BKN250 28/18 A3009 RMK AO2 PK WND 17026/1950 SLP186 T02830178
KHKS 
43nm SW 
201953Z 17016G24KT 10SM SCT055 SCT070 BKN085 29/18 A3009 RMK AO2 PK WND 15029/1900 SLP181 T02890178
K5A6 
43nm N 
202015Z AUTO 18008G20KT 10SM SCT040 BKN046 OVC065 25/17 A3010 RMK AO2 T02480173
KMEI 
47nm SE 
201958Z 16013KT 10SM SCT041 BKN050 OVC075 27/17 A3016 RMK AO2 SLP207 T02670172
TAF
KJAN 
39nm SW 
201727Z 2018/2118 16014G26KT P6SM BKN025 BKN250 FM210300 16011G20KT P6SM BKN015 BKN250 FM211000 16009KT P6SM BKN015 BKN250 FM211200 15009KT P6SM VCSH BKN015 BKN250
KHKS 
43nm SW 
201727Z 2018/2118 16014G26KT P6SM BKN025 BKN250 FM210300 16011G20KT P6SM BKN015 BKN250 FM211000 16009KT P6SM BKN015 BKN250 FM211200 15009KT P6SM VCSH BKN015 BKN250
KMEI 
47nm SE 
201727Z 2018/2118 17012KT P6SM BKN025 BKN250 FM210200 17010KT P6SM BKN015 BKN250 FM210500 17009KT P6SM BKN010 BKN250 FM211300 17007KT P6SM VCSH BKN015 OVC250
NOTAMs
Click for the latest NOTAMs
NOTAMs are issued by the DoD/FAA and will open in a separate window not controlled by AirNav.

 

 
 

FBO, Fuel Providers, and Aircraft Ground Support

  
 Business Name 
 
 Contact 
 
 Services / Description 
 
Fuel Prices
 
Comments
  
Carthage-Leake County Airport 601-267-9327
no information available

If you are affiliated with Carthage-Leake County Airport and would like to show here your services, contact info, web link, logo, and more, click here
100LL
AS $3.95 
 Updated 16-Feb-2018
 
   write
AS=Assisted/Self Service
Update Fuel Prices
 

Would you like to see your business listed on this page?

 If your business provides an interesting product or service to pilots, flight crews, aircraft, or users of the Carthage-Leake County Airport, you should consider listing it here.  To start the listing process, click on the button below
 
Add a business
 

Other Pages about Carthage-Leake County Airport

Update a link
 
Copyright © AirNav, LLC. All rights reserved. Privacy Policy  Contact